Terminal Aerodrome Forecast
Issued by NWS Grand Forks, ND

Home | Current Version | Previous Version | Graphics & Text | Print | Product List | Glossary On
Versions: 1 2 3 4 5 6 7 8 9 10 11 12 13 14 15 16 17 18 19 20 21 22 23 24
000
FTUS43 KFGF 221100
TAFFAR
TAF
KFAR 221138Z 2212/2312 36003KT 1/4SM FG VV002
      TEMPO 2212/2214 3SM BR SCT050
     FM221400 34006KT 2SM BR OVC005
     FM221800 36007KT P6SM BKN015
     FM230300 36008KT P6SM BKN012=

USA.gov is the U.S. government's official web portal to all federal, state and local government web resources and services.